Weather History for Zapata, TX

Change the Weather History Date:

Wednesday, November 21, 2012

  Actual Average (KLRD) Record (KLRD)
Temperature  
Mean Temperature 68 °F 64 °F  
Max Temperature 81 °F 74 °F 93 °F (1909)
Min Temperature 54 °F 53 °F 21 °F (1906)
Degree Days  
Heating Degree Days 0 4  
Month to date heating degree days 53  
Since 1 July heating degree days 65  
Cooling Degree Days 2 3  
Month to date cooling degree days 104  
Year to date cooling degree days 4233  
Growing Degree Days 18 (Base 50)    
Moisture  
Dew Point 56 °F    
Average Humidity 65    
Maximum Humidity 99    
Minimum Humidity 35    
Precipitation  
Precipitation 0.00 in 0.04 in 2.06 in (1980)
Month to date precipitation 0.89  
Year to date precipitation 19.02  
Sea Level Pressure  
Sea Level Pressure 30.18 in    
Wind  
Wind Speed 4 mph (SE)    
Max Wind Speed 13 mph    
Max Gust Speed 18 mph    
Visibility 10 miles    
Events      
T = Trace of Precipitation, MM = Missing Value Source: NWS Daily Summary

Daily Weather History Graph

Daily Weather History Graph

Search for Another Location

Airport:

Trip Planner

Search our weather history database for the weather conditions in past years. The results will help you decide how hot, cold, wet, or windy it might be!

Date:

Astronomy

Nov. 21, 2012 Rise Set
Actual Time 7:01 AM CST 5:44 PM CST
Civil Twilight 6:36 AM CST 6:08 PM CST
Nautical Twilight 6:08 AM CST 6:37 PM CST
Astronomical Twilight 5:40 AM CST 7:05 PM CST
Moon 1:31 PM CST (11/21) 12:55 AM CST (11/21)
Length of Visible Light 11h 31m
Length of Day
10h 42m
First Quarter, 62% of the Moon is Illuminated
Nov 21
First Quarter
Nov 28
Full
Dec 6
Last Quarter
Dec 13
New
Dec 19
First Quarter

Hourly Weather History & Observations

Time (CST) Temp. Heat Index Dew Point Humidity Pressure Visibility Wind Dir Wind Speed Gust Speed Precip Events Conditions
12:15 AM 68.0 °F - 58.1 °F 71% 30.18 in 10.0 mi SE 4.6 mph - N/A   Scattered Clouds
12:35 AM 67.1 °F - 58.3 °F 73% 30.18 in 10.0 mi SE 4.6 mph - N/A   Clear
12:55 AM 65.8 °F - 58.1 °F 76% 30.18 in 10.0 mi Calm Calm - N/A   Clear
2:15 AM 63.1 °F - 58.1 °F 84% 30.18 in 10.0 mi SE 3.5 mph - N/A   Clear
2:35 AM 62.8 °F - 57.6 °F 83% 30.18 in 10.0 mi Calm Calm - N/A   Clear
2:55 AM 60.1 °F - 56.5 °F 88% 30.17 in 10.0 mi Calm Calm - N/A   Clear
3:35 AM 58.3 °F - 54.7 °F 88% 30.18 in 10.0 mi Calm Calm - N/A   Clear
4:15 AM 59.4 °F - 56.7 °F 91% 30.18 in 10.0 mi Calm Calm - N/A   Clear
4:35 AM 59.0 °F - 57.0 °F 93% 30.17 in 10.0 mi Calm Calm - N/A   Clear
5:15 AM 55.9 °F - 53.6 °F 92% 30.18 in 10.0 mi Calm Calm - N/A   Clear
5:35 AM 55.8 °F - 53.2 °F 91% 30.18 in 10.0 mi Calm Calm - N/A   Clear
6:15 AM 56.1 °F - 54.7 °F 95% 30.19 in 10.0 mi Calm Calm - N/A   Clear
6:55 AM 54.9 °F - 53.1 °F 94% 30.20 in 10.0 mi ENE 3.5 mph - N/A   Clear
7:15 AM 57.0 °F - 56.5 °F 98% 30.21 in 5.0 mi East 3.5 mph - N/A   Clear
7:35 AM 59.5 °F - 59.2 °F 99% 30.22 in 5.0 mi Calm Calm - N/A   Clear
7:55 AM 60.8 °F - 60.1 °F 97% 30.22 in 7.0 mi Calm Calm - N/A   Clear
8:15 AM 62.6 °F - 60.6 °F 93% 30.23 in 10.0 mi Calm Calm - N/A   Clear
8:35 AM 64.0 °F - 60.8 °F 89% 30.23 in 10.0 mi East 3.5 mph - N/A   Clear
8:55 AM 65.3 °F - 61.0 °F 86% 30.24 in 10.0 mi Calm Calm - N/A   Clear
9:15 AM 67.3 °F - 61.7 °F 82% 30.24 in 10.0 mi ESE 4.6 mph - N/A   Clear
9:35 AM 68.2 °F - 61.9 °F 80% 30.24 in 10.0 mi ESE 5.8 mph - N/A   Clear
9:55 AM 71.4 °F - 62.4 °F 73% 30.24 in 10.0 mi SE 6.9 mph - N/A   Clear
10:15 AM 74.1 °F - 61.7 °F 65% 30.25 in 10.0 mi SE 8.1 mph - N/A   Clear
10:35 AM 75.2 °F - 59.9 °F 59% 30.25 in 10.0 mi SSE 5.8 mph - N/A   Clear
10:55 AM 76.6 °F - 59.4 °F 55% 30.24 in 10.0 mi SSW 4.6 mph - N/A   Clear
11:15 AM 77.2 °F - 58.1 °F 52% 30.23 in 10.0 mi ESE 8.1 mph - N/A   Clear
11:35 AM 79.7 °F - 57.2 °F 46% 30.22 in 10.0 mi SSE 12.7 mph 18.4 mph N/A   Clear
11:55 AM 79.9 °F - 56.5 °F 45% 30.21 in 10.0 mi ESE 6.9 mph 18.4 mph N/A   Clear
12:15 PM 79.3 °F - 56.1 °F 45% 30.20 in 10.0 mi East 6.9 mph 16.1 mph N/A   Clear
12:35 PM 79.7 °F - 55.8 °F 44% 30.19 in 10.0 mi SSE 9.2 mph - N/A   Scattered Clouds
12:55 PM 79.3 °F - 56.3 °F 45% 30.17 in 10.0 mi SSE 10.4 mph 16.1 mph N/A   Scattered Clouds
1:15 PM 79.3 °F - 55.0 °F 43% 30.16 in 10.0 mi SE 8.1 mph 16.1 mph N/A   Clear
1:35 PM 80.8 °F - 52.2 °F 37% 30.15 in 10.0 mi ESE 11.5 mph 16.1 mph N/A   Clear
2:15 PM 80.6 °F - 52.3 °F 37% 30.14 in 10.0 mi SE 11.5 mph - N/A   Clear
2:35 PM 80.6 °F 80.2 °F 53.1 °F 38% 30.14 in 10.0 mi ESE 6.9 mph - N/A   Clear
2:55 PM 80.6 °F 80.3 °F 53.6 °F 39% 30.13 in 10.0 mi SSE 8.1 mph 16.1 mph N/A   Clear
3:15 PM 80.2 °F - 52.7 °F 38% 30.13 in 10.0 mi SE 9.2 mph 16.1 mph N/A   Clear
3:35 PM 81.3 °F - 51.1 °F 35% 30.12 in 10.0 mi SE 11.5 mph - N/A   Clear
3:55 PM 80.8 °F - 52.0 °F 37% 30.12 in 10.0 mi SE 6.9 mph - N/A   Clear
4:15 PM 80.6 °F - 51.1 °F 36% 30.12 in 10.0 mi ESE 10.4 mph 17.3 mph N/A   Clear
4:35 PM 80.1 °F - 52.0 °F 38% 30.12 in 10.0 mi ESE 10.4 mph - N/A   Clear
4:55 PM 79.3 °F - 52.3 °F 39% 30.12 in 10.0 mi SE 10.4 mph - N/A   Clear
5:15 PM 78.3 °F - 53.4 °F 42% 30.12 in 10.0 mi SE 9.2 mph - N/A   Clear
5:35 PM 76.8 °F - 54.5 °F 46% 30.13 in 10.0 mi SE 5.8 mph - N/A   Clear
5:55 PM 75.4 °F - 54.7 °F 48% 30.13 in 10.0 mi SSE 3.5 mph - N/A   Clear
6:15 PM 73.6 °F - 54.7 °F 51% 30.14 in 10.0 mi Calm Calm - N/A   Clear
6:35 PM 72.0 °F - 54.7 °F 54% 30.14 in 10.0 mi Calm Calm - N/A   Clear
6:55 PM 70.2 °F - 54.3 °F 57% 30.14 in 10.0 mi Calm Calm - N/A   Clear
7:15 PM 67.5 °F - 53.8 °F 61% 30.15 in 10.0 mi Calm Calm - N/A   Clear
7:35 PM 68.9 °F - 54.5 °F 60% 30.16 in 10.0 mi SSE 3.5 mph - N/A   Clear
7:55 PM 68.5 °F - 54.9 °F 62% 30.17 in 10.0 mi SE 4.6 mph - N/A   Clear
8:15 PM 67.8 °F - 54.9 °F 63% 30.17 in 10.0 mi ESE 6.9 mph - N/A   Clear
8:35 PM 68.0 °F - 54.9 °F 63% 30.18 in 10.0 mi ESE 5.8 mph - N/A   Clear
8:55 PM 68.0 °F - 54.9 °F 63% 30.18 in 10.0 mi ESE 5.8 mph - N/A   Clear
9:15 PM 67.1 °F - 54.9 °F 65% 30.18 in 10.0 mi ESE 6.9 mph - N/A   Clear
9:35 PM 66.2 °F - 54.7 °F 66% 30.18 in 10.0 mi ESE 5.8 mph - N/A   Clear
9:55 PM 65.5 °F - 54.7 °F 68% 30.18 in 10.0 mi ESE 5.8 mph - N/A   Clear
10:15 PM 64.9 °F - 54.9 °F 70% 30.17 in 10.0 mi East 5.8 mph - N/A   Clear
10:55 PM 65.5 °F - 55.8 °F 71% 30.17 in 10.0 mi ESE 6.9 mph - N/A   Mostly Cloudy
11:15 PM 65.8 °F - 56.8 °F 73% 30.16 in 10.0 mi ESE 5.8 mph - N/A   Scattered Clouds
11:35 PM 65.3 °F - 56.8 °F 74% 30.15 in 10.0 mi ESE 6.9 mph - N/A   Clear
11:55 PM 63.9 °F - 56.3 °F 76% 30.15 in 10.0 mi ESE 4.6 mph - N/A   Clear